THEMIS E

Last updated on Fri Jul 04 2025 00:02:37 GMT+0000 (Coordinated Universal Time)

1 30798U 07004E 25183.74929264 -.00000475 00000+0 00000+0 0 9995 2 30798 0.9746 252.8941 8418647 20.4071 9.5845 0.87837817 62837
UTC large
Height (km)
Speed (km/s)
/
Latitude / Longitude
Inclination (degrees)
Orbital Period (minutes)
Azimuth
Elevation
Range (km)
Doppler Factor

Next 0 passes for location: London (51.5072 / 0.1276)

Sorry there are no passes over London.